Camden, AR

12:56 AM CST on February 23, 2018 (GMT -0600)
Harrell

Weather History for KCDH - January, 2014

Change the Weather History Date:

Sunday, January 12, 2014

  Actual Average Record
Temperature  
Mean Temperature 50 °F -  
Max Temperature 71 °F 49 °F 76 °F (1960)
Min Temperature 28 °F 28 °F -2 °F (1962)
Degree Days  
Heating Degree Days 16    
Moisture  
Dew Point 30 °F    
Average Humidity 54    
Maximum Humidity 100    
Minimum Humidity 19    
Precipitation  
Precipitation 0.00 in - - ()
Sea Level Pressure  
Sea Level Pressure 30.01 in    
Wind  
Wind Speed 4 mph (NE)    
Max Wind Speed 17 mph    
Max Gust Speed 24 mph    
Visibility 10 miles    
Events Rain    
Averages and records for this station are not official NWS values.
T = Trace of Precipitation, MM = Missing Value Source: NWS Daily Summary

Daily Weather History Graph

Daily Weather History Graph

Search for Another Location

Airport or City:

Trip Planner

Search our weather history database for the weather conditions in past years. The results will help you decide how hot, cold, wet, or windy it might be!

Date:

Astronomy

Jan. 12, 2014 Rise Set
Actual Time 7:15 AM CST 5:23 PM CST
Civil Twilight 6:48 AM CST 5:50 PM CST
Nautical Twilight 6:18 AM CST 6:20 PM CST
Astronomical Twilight 5:48 AM CST 6:50 PM CST
Moon 2:50 PM CST (1/12) 4:16 AM CST (1/12)
Length of Visible Light 11h 01m
Length of Day
10h 07m
Waxing Gibbous, 90% of the Moon is Illuminated
Jan 12
Waxing Gibbous
Jan 15
Full
Jan 23
Last Quarter
Jan 30
New
Feb 6
First Quarter

Hourly Weather History & Observations

Time (CST) Temp. Windchill Dew Point Humidity Pressure Visibility Wind Dir Wind Speed Gust Speed Precip Events Conditions
12:15 AM 33.8 °F - 32.0 °F 93% 30.07 in 10.0 mi Calm Calm - N/A   Clear
12:35 AM 32.0 °F - 32.0 °F 100% 30.08 in 10.0 mi Calm Calm - N/A   Clear
12:55 AM 32.0 °F - 32.0 °F 100% 30.08 in 10.0 mi Calm Calm - N/A   Clear
1:15 AM 32.0 °F - 32.0 °F 100% 30.08 in 10.0 mi Calm Calm - N/A   Clear
1:35 AM 32.0 °F - 30.2 °F 93% 30.08 in 10.0 mi Calm Calm - N/A   Clear
1:55 AM 32.0 °F - 30.2 °F 93% 30.08 in 10.0 mi Calm Calm - N/A   Clear
2:15 AM 32.0 °F - 28.4 °F 87% 30.08 in 10.0 mi Calm Calm - N/A   Clear
2:35 AM 32.0 °F - 28.4 °F 87% 30.09 in 10.0 mi Calm Calm - N/A   Clear
2:55 AM 32.0 °F - 30.2 °F 93% 30.10 in 10.0 mi Calm Calm - N/A   Clear
3:15 AM 32.0 °F - 28.4 °F 87% 30.10 in 10.0 mi Calm Calm - N/A   Clear
3:35 AM 30.2 °F - 28.4 °F 93% 30.10 in 10.0 mi Calm Calm - N/A   Clear
3:55 AM 30.2 °F - 28.4 °F 93% 30.09 in 10.0 mi Calm Calm - N/A   Clear
4:15 AM 30.2 °F - 28.4 °F 93% 30.09 in 10.0 mi Calm Calm - N/A   Clear
4:35 AM 30.2 °F - 28.4 °F 93% 30.09 in 10.0 mi Calm Calm - N/A   Clear
4:55 AM 28.4 °F - 26.6 °F 93% 30.09 in 10.0 mi Calm Calm - N/A   Clear
5:15 AM 28.4 °F - 26.6 °F 93% 30.09 in 10.0 mi Calm Calm - N/A   Clear
5:35 AM 30.2 °F - 28.4 °F 93% 30.09 in 10.0 mi Calm Calm - N/A   Clear
5:55 AM 28.4 °F - 26.6 °F 93% 30.09 in 10.0 mi Calm Calm - N/A   Clear
6:15 AM 28.4 °F - 26.6 °F 93% 30.09 in 10.0 mi Calm Calm - N/A   Clear
6:35 AM 28.4 °F - 26.6 °F 93% 30.09 in 10.0 mi Calm Calm - N/A   Clear
6:55 AM 28.4 °F - 26.6 °F 93% 30.09 in 10.0 mi Calm Calm - N/A   Clear
7:15 AM 28.4 °F - 26.6 °F 93% 30.09 in 10.0 mi Calm Calm - N/A   Clear
7:35 AM 28.4 °F - 26.6 °F 93% 30.08 in 10.0 mi Calm Calm - N/A   Clear
7:55 AM 32.0 °F 26.4 °F 28.4 °F 87% 30.09 in 10.0 mi NE 5.8 mph - N/A   Clear
8:15 AM 35.6 °F - 32.0 °F 87% 30.09 in 10.0 mi Calm Calm - N/A   Clear
8:35 AM 37.4 °F - 33.8 °F 87% 30.10 in 10.0 mi Calm Calm - N/A   Clear
8:55 AM 41.0 °F - 35.6 °F 81% 30.11 in 10.0 mi Calm Calm - N/A   Clear
9:15 AM 42.8 °F 41.1 °F 35.6 °F 76% 30.11 in 10.0 mi ENE 3.5 mph - N/A   Clear
9:35 AM 46.4 °F 45.2 °F 35.6 °F 66% 30.12 in 10.0 mi East 3.5 mph - N/A   Clear
9:55 AM 50.0 °F - 33.8 °F 54% 30.12 in 10.0 mi ENE 5.8 mph - N/A   Clear
10:15 AM 53.6 °F - 32.0 °F 44% 30.12 in 10.0 mi ENE 5.8 mph - N/A   Clear
10:35 AM 57.2 °F - 32.0 °F 38% 30.12 in 10.0 mi ENE 9.2 mph - N/A   Clear
10:55 AM 59.0 °F - 32.0 °F 36% 30.11 in 10.0 mi ENE 10.4 mph - N/A   Clear
11:15 AM 62.6 °F - 32.0 °F 32% 30.10 in 10.0 mi ENE 8.1 mph - N/A   Clear
11:35 AM 64.4 °F - 30.2 °F 28% 30.08 in 10.0 mi ENE 10.4 mph 17.3 mph N/A   Clear
11:55 AM 64.4 °F - 28.4 °F 26% 30.06 in 10.0 mi ENE 10.4 mph 16.1 mph N/A   Clear
12:15 PM 66.2 °F - 28.4 °F 24% 30.04 in 10.0 mi ENE 11.5 mph 19.6 mph N/A   Clear
12:35 PM 68.0 °F - 28.4 °F 23% 30.02 in 10.0 mi ENE 11.5 mph 17.3 mph N/A   Clear
12:55 PM 68.0 °F - 26.6 °F 21% 30.00 in 10.0 mi ENE 12.7 mph 21.9 mph N/A   Clear
1:15 PM 68.0 °F - 26.6 °F 21% 29.99 in 10.0 mi ENE 12.7 mph 23.0 mph N/A   Clear
1:35 PM 68.0 °F - 26.6 °F 21% 29.98 in 10.0 mi NE 13.8 mph 19.6 mph N/A   Clear
1:55 PM 69.8 °F - 28.4 °F 21% 29.97 in 10.0 mi NE 13.8 mph - N/A   Clear
2:15 PM 69.8 °F - 26.6 °F 20% 29.96 in 10.0 mi East 13.8 mph 17.3 mph N/A   Clear
2:35 PM 71.6 °F - 26.6 °F 19% 29.95 in 10.0 mi NE 11.5 mph 18.4 mph N/A   Clear
2:55 PM 71.6 °F - 26.6 °F 19% 29.94 in 10.0 mi NE 13.8 mph 19.6 mph N/A   Clear
3:15 PM 71.6 °F - 26.6 °F 19% 29.94 in 10.0 mi NE 15.0 mph 20.7 mph N/A   Clear
3:35 PM 69.8 °F - 26.6 °F 20% 29.94 in 10.0 mi NE 13.8 mph 20.7 mph N/A   Clear
3:55 PM 68.0 °F - 26.6 °F 21% 29.93 in 10.0 mi NE 10.4 mph 24.2 mph N/A   Clear
4:15 PM 68.0 °F - 26.6 °F 21% 29.93 in 10.0 mi NE 15.0 mph 19.6 mph N/A   Clear
4:35 PM 68.0 °F - 26.6 °F 21% 29.94 in 10.0 mi NE 12.7 mph 16.1 mph N/A   Clear
4:55 PM 66.2 °F - 26.6 °F 23% 29.94 in 10.0 mi NE 10.4 mph - N/A   Clear
5:15 PM 64.4 °F - 26.6 °F 24% 29.94 in 10.0 mi NE 11.5 mph - N/A   Clear
5:35 PM 64.4 °F - 28.4 °F 26% 29.94 in 10.0 mi NE 8.1 mph 17.3 mph N/A   Clear
5:55 PM 62.6 °F - 28.4 °F 27% 29.93 in 10.0 mi NE 11.5 mph - N/A   Clear
6:15 PM 60.8 °F - 28.4 °F 29% 29.94 in 10.0 mi NE 9.2 mph - N/A   Clear
6:35 PM 60.8 °F - 30.2 °F 31% 29.93 in 10.0 mi NE 8.1 mph - N/A   Clear
6:55 PM 60.8 °F - 30.2 °F 31% 29.93 in 10.0 mi NE 9.2 mph - N/A   Clear
7:15 PM 60.8 °F - 30.2 °F 31% 29.92 in 10.0 mi NE 10.4 mph - N/A   Clear
7:35 PM 62.6 °F - 30.2 °F 30% 29.91 in 10.0 mi NE 10.4 mph - N/A   Clear
7:55 PM 62.6 °F - 30.2 °F 30% 29.89 in 10.0 mi NE 15.0 mph - N/A Rain Light Rain
8:15 PM 60.8 °F - 32.0 °F 34% 29.87 in 10.0 mi NE 17.3 mph 24.2 mph N/A   Partly Cloudy
8:35 PM 60.8 °F - 32.0 °F 34% 29.90 in 10.0 mi NE 10.4 mph - N/A   Partly Cloudy
8:55 PM 62.6 °F - 32.0 °F 32% 29.90 in 10.0 mi NE 13.8 mph 23.0 mph N/A   Scattered Clouds
9:15 PM 62.6 °F - 32.0 °F 32% 29.90 in 10.0 mi NE 11.5 mph 20.7 mph N/A   Partly Cloudy
9:35 PM 62.6 °F - 32.0 °F 32% 29.89 in 10.0 mi NE 12.7 mph 17.3 mph N/A   Clear
9:55 PM 60.8 °F - 32.0 °F 34% 29.88 in 10.0 mi NE 12.7 mph 21.9 mph N/A   Clear
10:15 PM 60.8 °F - 32.0 °F 34% 29.88 in 10.0 mi NE 11.5 mph 20.7 mph N/A   Scattered Clouds
10:35 PM 60.8 °F - 32.0 °F 34% 29.87 in 10.0 mi NE 13.8 mph 18.4 mph N/A   Scattered Clouds
10:55 PM 60.8 °F - 35.6 °F 39% 29.87 in 10.0 mi NE 13.8 mph 21.9 mph N/A   Mostly Cloudy
11:15 PM 60.8 °F - 37.4 °F 42% 29.87 in 10.0 mi NE 16.1 mph 20.7 mph N/A   Mostly Cloudy
11:35 PM 59.0 °F - 37.4 °F 45% 29.89 in 10.0 mi NE 17.3 mph 21.9 mph N/A   Partly Cloudy
11:55 PM 59.0 °F - 37.4 °F 45% 29.88 in 10.0 mi NE 11.5 mph 24.2 mph N/A   Clear